| time (UTC) | temp F | wind direction | speed knots | gust knots | rain 1hr in | rain 24hr in | rain mn in | humidity % | barometer mb |
| 20260504231544 | 74 | 309 | 4.3 | 15.6 | 0.00 | 0.00 | 0.00 | 19 | 996.1 |
| 20260504230044 | 74 | 249 | 4.3 | 12.2 | 0.00 | 0.00 | 0.00 | 19 | 996.0 |
| 20260504224543 | 74 | 254 | 6.1 | 14.8 | 0.00 | 0.00 | 0.00 | 18 | 996.0 |
| 20260504223058 | 75 | 351 | 5.2 | 14.8 | 0.00 | 0.00 | 0.00 | 17 | 995.9 |
| 20260504221541 | 74 | 259 | 7.0 | 15.6 | 0.00 | 0.00 | 0.00 | 18 | 996.1 |
| 20260504220039 | 74 | 257 | 4.3 | 17.4 | 0.00 | 0.00 | 0.00 | 18 | 996.4 |
| 20260504214539 | 74 | 210 | 5.2 | 14.8 | 0.00 | 0.00 | 0.00 | 18 | 996.4 |
| 20260504213037 | 74 | 304 | 8.7 | 19.1 | 0.00 | 0.00 | 0.00 | 19 | 996.6 |
| 20260504211551 | 75 | 236 | 4.3 | 16.5 | 0.00 | 0.00 | 0.00 | 21 | 997.0 |
| 20260504210038 | 74 | 262 | 6.1 | 22.6 | 0.00 | 0.00 | 0.00 | 22 | 997.1 |
| 20260504204533 | 75 | 250 | 7.0 | 19.1 | 0.00 | 0.00 | 0.00 | 20 | 997.3 |
| 20260504203032 | 74 | 242 | 8.7 | 21.7 | 0.00 | 0.00 | 0.00 | 20 | 997.4 |
| 20260504201531 | 75 | 265 | 7.8 | 19.1 | 0.00 | 0.00 | 0.00 | 20 | 997.6 |
| 20260504200031 | 76 | 271 | 5.2 | 19.1 | 0.00 | 0.00 | 0.00 | 19 | 997.6 |
| 20260504194529 | 76 | 231 | 5.2 | 13.9 | 0.00 | 0.00 | 0.00 | 16 | 997.5 |
| 20260504193027 | 76 | 266 | 5.2 | 12.2 | 0.00 | 0.00 | 0.00 | 16 | 997.7 |
| 20260504191527 | 75 | 269 | 5.2 | 17.4 | 0.00 | 0.00 | 0.00 | 16 | 997.9 |
| 20260504190023 | 75 | 231 | 7.0 | 18.2 | 0.00 | 0.00 | 0.00 | 17 | 998.0 |
| 20260504184533 | 75 | 249 | 8.7 | 13.9 | 0.00 | 0.00 | 0.00 | 15 | 998.1 |
| 20260504183020 | 75 | 284 | 4.3 | 13.0 | 0.00 | 0.00 | 0.00 | 17 | 998.5 |
| 20260504181517 | 74 | 284 | 7.8 | 15.6 | 0.00 | 0.00 | 0.00 | 18 | 998.6 |
| 20260504180015 | 74 | 244 | 6.1 | 18.2 | 0.00 | 0.00 | 0.00 | 19 | 998.5 |
| 20260504174514 | 73 | 234 | 7.8 | 18.2 | 0.00 | 0.00 | 0.00 | 20 | 998.6 |
| 20260504173011 | 72 | 257 | 3.5 | 10.4 | 0.00 | 0.00 | 0.00 | 22 | 999.2 |
| 20260504171509 | 72 | 280 | 4.3 | 14.8 | 0.00 | 0.00 | 0.00 | 22 | 999.6 |
| 20260504081548 | 52 | 6 | 0.0 | 0.0 | 0.00 | 0.00 | 0.00 | 48 | 1003.2 |
| 20260504044523 | 65 | 13 | 4.3 | 11.3 | 0.00 | 0.00 | 0.00 | 25 | 1003.9 |
| 20260504043027 | 65 | 27 | 2.6 | 4.3 | 0.00 | 0.00 | 0.00 | 24 | 1003.7 |
| 20260504041531 | 67 | 34 | 3.5 | 7.8 | 0.00 | 0.00 | 0.00 | 21 | 1003.7 |
| 20260504040021 | 68 | 15 | 2.6 | 6.1 | 0.00 | 0.00 | 0.00 | 20 | 1003.8 |
| 20260504034521 | 67 | 12 | 1.7 | 6.1 | 0.00 | 0.00 | 0.00 | 22 | 1004.1 |
| 20260504033021 | 67 | 30 | 6.1 | 9.6 | 0.00 | 0.00 | 0.00 | 21 | 1004.0 |
| 20260504031520 | 67 | 100 | 0.0 | 0.0 | 0.00 | 0.00 | 0.00 | 24 | 1003.6 |
| 20260504030019 | 67 | 346 | 0.0 | 0.9 | 0.00 | 0.00 | 0.00 | 21 | 1003.4 |
| 20260504024520 | 68 | 144 | 0.0 | 0.9 | 0.00 | 0.00 | 0.00 | 21 | 1003.1 |
| 20260504023019 | 69 | 317 | 0.0 | 0.9 | 0.00 | 0.00 | 0.00 | 19 | 1003.1 |
| 20260504021518 | 70 | 15 | 0.0 | 0.9 | 0.00 | 0.00 | 0.00 | 18 | 1003.0 |
| 20260504020019 | 71 | 21 | 0.9 | 2.6 | 0.00 | 0.00 | 0.00 | 19 | 1002.8 |
| 20260504014524 | 71 | 58 | 1.7 | 3.5 | 0.00 | 0.00 | 0.00 | 17 | 1002.5 |
| 20260504013017 | 72 | 345 | 0.0 | 2.6 | 0.00 | 0.00 | 0.00 | 17 | 1002.5 |
| 20260504011517 | 74 | 346 | 2.6 | 5.2 | 0.00 | 0.00 | 0.00 | 15 | 1002.4 |
| 20260504010015 | 74 | 29 | 0.9 | 2.6 | 0.00 | 0.00 | 0.00 | 15 | 1002.4 |
| 20260504004520 | 74 | 356 | 2.6 | 8.7 | 0.00 | 0.00 | 0.00 | 15 | 1002.6 |
| 20260504003014 | 74 | 302 | 7.0 | 12.2 | 0.00 | 0.00 | 0.00 | 14 | 1002.5 |
| 20260504001514 | 76 | 338 | 0.9 | 8.7 | 0.00 | 0.00 | 0.00 | 14 | 1002.5 |
| 20260504000013 | 77 | 234 | 1.7 | 9.6 | 0.00 | 0.00 | 0.00 | 13 | 1002.6 |
| 20260503234511 | 77 | 246 | 2.6 | 6.1 | 0.00 | 0.00 | 0.00 | 12 | 1002.7 |
| 20260503233016 | 77 | 230 | 2.6 | 9.6 | 0.00 | 0.00 | 0.00 | 12 | 1002.7 |